Powrót do katalogu

THOR BURNER 2A DEB

AktywnySSO
NORAD 28591·DEBRIS·🇺🇸 United States

Wystrzelony Mar 16, 1974 z Vandenberg Space Force Base

Loading…

Następne Przeloty (najbliższe 24 godziny)

TLE

ŚwieżeSource: Space-Track

Epoka: Sep 14, 2026, 14:25 UTC

1 28591U 74015C   26257.60085829  .00000135  00000-0  80221-4 0  9998
2 28591  98.9427 167.9485 0045278 221.1087 258.8118 14.22447915122549

Śledź THOR BURNER 2A DEB w czasie rzeczywistym z AllMySat

Download on the App Store